Location: Cormont
(50.5693°N, 1.7416°E)
Time: 13:57:11
(UTC+00:00)

STARLINK-32 - Pass Details

Date: 21 October 2019
Orbit: 548 x 551 km, 53.0° (Epoch: 11 November)

Event Time Altitude Azimuth Distance (km) Brightness Sun altitude
Rises 18:11:10 0° 275° (W) 2,717 9.1 -13.6°
Reaches altitude 10° 18:13:26 10° 279° (W) 1,824 7.7 -14.0°
Maximum altitude 18:17:32 60° 0° (N) 631 3.9 -14.6°
Enters shadow 18:19:43 26° 73° (ENE) 1,110 4.6 -15.0°
